{"data":{"norad_id":57291,"epoch":"2026-05-25T00:43:09.126336Z","epoch_age_seconds":72380,"freshness":"FRESH","line1":"1 57291U 23096B   26145.02996674  .00000717  00000+0  35566-4 0  9998","line2":"2 57291  43.0011 151.9645 0001561 267.6260  92.4412 15.27578689159294","mean_motion":15.27578689,"eccentricity":0.0001561,"inclination_deg":43.0011,"raan_deg":151.9645,"arg_perigee_deg":267.626,"mean_anomaly_deg":92.4412,"bstar":3.5566e-5,"rev_number":15929,"period_min":94.266829615348,"perigee_km":481.98198988571,"apogee_km":484.12405341047,"semimajor_km":6861.1900216481,"source":"CELESTRAK","updated_at":"2026-05-25T13:38:18.283127Z"}}